DAL23 KLAX-KOAK

Flight info

Callsign DAL23
Flight time N/A
Altitude 38000
Route LADYJ4 COREZ RGOOD EMZOH4
Aircraft A20N/M-SDE2E3FGHIRWXY/LB1

Departure

Time 2026-04-25 03:58
Airport Los Angeles International Airport (KLAX)

Arrival

Time N/A
Airport San Francisco Bay Oakland International Airport (KOAK)
Time Latitude Longitude Altitude Speed Heading
2026-04-25 03:21 33.94612 -118.40329 125 ft 0 kts 249°
2026-04-25 03:39 33.94613 -118.40326 125 ft 3 kts 249°
2026-04-25 03:39 33.94622 -118.40296 121 ft 4 kts 249°
2026-04-25 03:40 33.94631 -118.40266 123 ft 4 kts 258°
2026-04-25 03:40 33.94629 -118.40243 121 ft 1 kts 323°
2026-04-25 03:40 33.94642 -118.40249 124 ft 4 kts 344°
2026-04-25 03:40 33.94669 -118.40251 123 ft 4 kts 358°
2026-04-25 03:41 33.94670 -118.40251 123 ft 0 kts 358°
2026-04-25 03:53 33.94671 -118.40251 125 ft 4 kts 358°
2026-04-25 03:53 33.94773 -118.40262 123 ft 11 kts 350°
2026-04-25 03:53 33.94860 -118.40310 124 ft 7 kts 338°
2026-04-25 03:54 33.94906 -118.40226 121 ft 22 kts 76°
2026-04-25 03:54 33.94924 -118.40074 125 ft 17 kts 83°
2026-04-25 03:54 33.94931 -118.40003 125 ft 10 kts 83°
2026-04-25 03:54 33.94947 -118.39938 123 ft 0 kts 55°
2026-04-25 03:56 33.94988 -118.39930 123 ft 12 kts 339°
2026-04-25 03:57 33.95031 -118.40037 122 ft 18 kts 228°
2026-04-25 03:57 33.95013 -118.40114 124 ft 13 kts 275°
2026-04-25 03:57 33.95015 -118.40226 123 ft 18 kts 265°
2026-04-25 03:57 33.95013 -118.40697 124 ft 91 kts 264°
2026-04-25 03:58 33.94867 -118.41689 125 ft 147 kts 262°
2026-04-25 03:58 33.94723 -118.42972 626 ft 153 kts 261°
2026-04-25 03:58 33.94537 -118.44707 1459 ft 156 kts 263°
2026-04-25 03:58 33.94449 -118.45578 1973 ft 156 kts 263°
2026-04-25 03:59 33.94332 -118.46948 2431 ft 174 kts 267°
2026-04-25 03:59 33.94279 -118.48465 2810 ft 192 kts 268°
2026-04-25 03:59 33.94227 -118.50150 3034 ft 210 kts 268°
2026-04-25 03:59 33.94119 -118.51987 3203 ft 231 kts 265°
2026-04-25 04:00 33.93970 -118.54002 3395 ft 252 kts 265°
2026-04-25 04:00 33.93806 -118.56150 3859 ft 258 kts 265°
2026-04-25 04:00 33.93644 -118.58238 4855 ft 241 kts 264°
2026-04-25 04:00 33.93494 -118.60180 5772 ft 225 kts 265°
2026-04-25 04:01 33.93590 -118.61978 6625 ft 210 kts 284°
2026-04-25 04:01 33.94186 -118.63563 7128 ft 210 kts 305°
2026-04-25 04:01 33.95262 -118.64768 7502 ft 215 kts 327°
2026-04-25 04:01 33.96569 -118.65696 7808 ft 224 kts 327°
2026-04-25 04:02 33.97968 -118.66679 7916 ft 241 kts 330°
2026-04-25 04:02 33.99551 -118.67420 8170 ft 250 kts 346°
2026-04-25 04:02 34.01238 -118.67581 8942 ft 236 kts
2026-04-25 04:02 34.02838 -118.67450 9572 ft 228 kts
2026-04-25 04:03 34.04427 -118.67330 9901 ft 230 kts 360°
2026-04-25 04:03 34.06028 -118.67222 10203 ft 231 kts 359°
2026-04-25 04:03 34.07638 -118.67110 10492 ft 233 kts
2026-04-25 04:03 34.09252 -118.66796 10781 ft 236 kts
2026-04-25 04:04 34.10871 -118.66426 11059 ft 237 kts
2026-04-25 04:04 34.12495 -118.66047 11309 ft 239 kts
2026-04-25 04:04 34.14129 -118.65662 11573 ft 240 kts
2026-04-25 04:04 34.15768 -118.65273 11813 ft 241 kts
2026-04-25 04:05 34.17413 -118.64882 12068 ft 241 kts
2026-04-25 04:05 34.19055 -118.64493 12323 ft 241 kts
2026-04-25 04:05 34.20704 -118.64102 12550 ft 242 kts
2026-04-25 04:05 34.22337 -118.63714 12784 ft 243 kts
2026-04-25 04:06 34.24002 -118.63405 13019 ft 240 kts 356°
2026-04-25 04:06 34.25655 -118.63472 13245 ft 236 kts 345°
2026-04-25 04:06 34.27269 -118.63847 13402 ft 239 kts 341°
2026-04-25 04:06 34.28929 -118.64261 13471 ft 248 kts 342°
2026-04-25 04:07 34.30639 -118.64676 13643 ft 252 kts 342°
2026-04-25 04:07 34.32368 -118.65080 13870 ft 254 kts 342°
2026-04-25 04:07 34.34102 -118.65476 14112 ft 253 kts 342°
2026-04-25 04:07 34.35839 -118.65869 14296 ft 255 kts 343°
2026-04-25 04:08 34.37560 -118.66260 14462 ft 256 kts 343°
2026-04-25 04:08 34.39315 -118.66657 14652 ft 257 kts 342°
2026-04-25 04:08 34.41065 -118.67056 14870 ft 255 kts 341°
2026-04-25 04:08 34.42760 -118.67634 15034 ft 251 kts 333°
2026-04-25 04:09 34.44338 -118.68518 15155 ft 249 kts 323°
2026-04-25 04:09 34.45824 -118.69581 15307 ft 248 kts 323°
2026-04-25 04:09 34.47308 -118.70651 15448 ft 248 kts 323°
2026-04-25 04:09 34.48799 -118.71719 15609 ft 249 kts 323°
2026-04-25 04:10 34.50294 -118.72782 15760 ft 249 kts 323°
2026-04-25 04:10 34.51774 -118.73831 15887 ft 250 kts 323°
2026-04-25 04:10 34.53275 -118.74894 16017 ft 250 kts 323°
2026-04-25 04:10 34.54780 -118.75958 16143 ft 251 kts 323°
2026-04-25 04:11 34.57801 -118.78090 16414 ft 251 kts 323°
2026-04-25 04:11 34.59310 -118.79157 16497 ft 251 kts 323°
2026-04-25 04:11 34.60824 -118.80228 16613 ft 252 kts 323°
2026-04-25 04:12 34.62341 -118.81303 16730 ft 252 kts 323°
2026-04-25 04:12 34.63857 -118.82375 16866 ft 252 kts 323°
2026-04-25 04:12 34.65371 -118.83447 16977 ft 252 kts 323°
2026-04-25 04:12 34.66885 -118.84519 17018 ft 252 kts 323°
2026-04-25 04:13 34.68379 -118.85579 17087 ft 252 kts 323°
2026-04-25 04:13 34.69898 -118.86655 17116 ft 253 kts 323°
2026-04-25 04:13 34.71420 -118.87736 17203 ft 253 kts 322°
2026-04-25 04:13 34.72942 -118.88817 17307 ft 253 kts 322°
2026-04-25 04:14 34.74462 -118.89896 17404 ft 253 kts 322°
2026-04-25 04:14 34.75983 -118.90977 17489 ft 253 kts 322°
2026-04-25 04:14 34.77505 -118.92058 17558 ft 254 kts 322°
2026-04-25 04:14 34.79029 -118.93143 17648 ft 254 kts 322°
2026-04-25 04:15 34.80554 -118.94229 17724 ft 254 kts 322°
2026-04-25 04:15 34.82054 -118.95300 17808 ft 253 kts 322°
2026-04-25 04:15 34.83575 -118.96386 17880 ft 254 kts 322°
2026-04-25 04:15 34.85102 -118.97479 17950 ft 255 kts 322°
2026-04-25 04:16 34.86630 -118.98573 18064 ft 255 kts 322°
2026-04-25 04:16 34.88163 -118.99671 18175 ft 256 kts 322°
2026-04-25 04:16 34.89698 -119.00769 18296 ft 256 kts 322°
2026-04-25 04:16 34.91245 -119.01875 18329 ft 259 kts 322°
2026-04-25 04:17 34.92807 -119.02992 18353 ft 261 kts 322°
2026-04-25 04:17 34.94357 -119.04099 18392 ft 263 kts 322°
2026-04-25 04:17 34.95918 -119.05213 18577 ft 257 kts 322°
2026-04-25 04:17 34.97452 -119.06308 18731 ft 254 kts 322°
2026-04-25 04:18 34.98974 -119.07397 18798 ft 254 kts 322°
2026-04-25 04:18 35.00499 -119.08492 18846 ft 255 kts 322°
2026-04-25 04:18 35.02027 -119.09589 18910 ft 255 kts 322°
2026-04-25 04:18 35.03553 -119.10684 18996 ft 254 kts 322°
2026-04-25 04:19 35.05077 -119.11778 19044 ft 254 kts 321°
2026-04-25 04:19 35.06606 -119.12877 19066 ft 256 kts 321°
2026-04-25 04:19 35.08149 -119.13987 19086 ft 258 kts 321°
2026-04-25 04:19 35.09664 -119.15075 19201 ft 255 kts 321°
2026-04-25 04:20 35.11193 -119.16173 19270 ft 255 kts 321°
2026-04-25 04:20 35.12721 -119.17272 19316 ft 255 kts 321°
2026-04-25 04:20 35.14251 -119.18372 19375 ft 255 kts 321°
2026-04-25 04:20 35.15779 -119.19472 19445 ft 255 kts 321°
2026-04-25 04:21 35.17308 -119.20576 19479 ft 256 kts 322°
2026-04-25 04:21 35.18846 -119.21687 19506 ft 257 kts 322°
2026-04-25 04:21 35.20389 -119.22800 19527 ft 258 kts 322°
2026-04-25 04:21 35.21916 -119.23902 19554 ft 259 kts 322°
2026-04-25 04:22 35.23468 -119.25022 19581 ft 260 kts 322°
2026-04-25 04:22 35.25027 -119.26147 19615 ft 260 kts 322°